Regional Weather Roundup
Issued by NWS

Home | Current Version | Previous Version | Text Only | Print | Product List | Glossary Off
Versions: 1 2 3 4 5 6 7 8 9 10 11 12 13 14 15 16 17 18 19 20 21 22 23 24 25 26 27 28

000
ASUS45 KBOI 220210
RWRID

IDAHO REGIONAL WEATHER ROUNDUP
NATIONAL WEATHER SERVICE BOISE ID
800 PM MDT WED JUN 21 2017

NOTE: "FAIR" INDICATES FEW OR NO CLOUDS BELOW 12000 FEET
WITH NO SIGNIFICANT WEATHER AND/OR OBSTRUCTIONS TO VISIBILITY

IDZ012-014-220300-
SOUTHWEST IDAHO


CITY           SKY/WX    TMP DP  RH WIND       PRES   REMARKS
BOISE          MOSUNNY   83  36  18 NW15      29.95S
CALDWELL       MOSUNNY   82  40  22 NW13G20   29.95S
MOUNTAIN HOME  SUNNY     84  26  12 NW21G28   29.95R
$$

IDZ016-017-220300-
SOUTHCENTRAL IDAHO


CITY           SKY/WX    TMP DP  RH WIND       PRES   REMARKS
BURLEY         SUNNY     77  40  26 W14G25    29.94F
JEROME         SUNNY     78  25  14 W16G23    29.96S
TWIN FALLS     SUNNY     78  33  19 W16       29.98S
$$

IDZ019>023-220300-
SOUTHEAST IDAHO


CITY           SKY/WX    TMP DP  RH WIND       PRES   REMARKS
IDAHO FALLS    SUNNY     78  46  32 S20G26    29.91S
POCATELLO      CLOUDY    78  43  28 SW17      29.94F
REXBURG        SUNNY     78  45  30 S20G29    29.90S
$$

IDZ006-010-011-018-031-032-220300-
CENTRAL IDAHO MOUNTAINS


CITY           SKY/WX    TMP DP  RH WIND       PRES   REMARKS
MCCALL         SUNNY     72  27  18 W9        30.09R
HAILEY         SUNNY     79  39  24 S9        29.98S
STANLEY          N/A     72  29  20 NW8       30.12S
SALMON         SUNNY    N/A N/A N/A MISG        N/A
CHALLIS        SUNNY     79  28  15 NW14      29.98R
$$

IDZ002-004-006-007-026-220300-
NORTHERN IDAHO


CITY           SKY/WX    TMP DP  RH WIND       PRES   REMARKS
LEWISTON       SUNNY     78  31  17 W14G21    30.02S
LOWELL           N/A     71  46  40 CALM      30.02R
COEUR D`ALENE  SUNNY     73  34  23 W14       30.02S
MULLAN PASS    SUNNY     54  23  30 VRB7      30.14R
$$




USA.gov is the U.S. government's official web portal to all federal, state and local government web resources and services.